Home > Weather > Küsnacht > Past weeks

Flag for Switzerland Past Weather in Küsnacht, Zurich, Switzerland — Yesterday and Last 2 Weeks

Now
64 °F

Mild.


Feels Like: 64 °F
Forecast: 56 / 68 °F
Wind: 6 mph from Southwest

Location: Zuerich-Fluntern

Current Time: Jun 25, 2016 at 8:00:58 PM

Latest Report: Jun 25, 2016 at 7:00 PM


Visibility: N/A

Pressure: 30.01 "Hg

Humidity: 94%

Dew Point: 62 °F

Location of KüsnachtLocation

Past Weather in Küsnacht — Graph

°F

Küsnacht Temperature Yesterday

Maximum temperature yesterday: 88 °F (at 5:00 PM)
Minimum temperature yesterday: 65 °F (at 11:00 PM)
Average temperature yesterday: 77 °F

High & Low Weather Summary for the Past Weeks

 TemperatureHumidityPressure
High90 °F (Jun 23, 6:00 PM)97% (Jun 17, 12:00 AM)30.28 "Hg (Jun 17, 12:00 AM)
Low48 °F (Jun 17, 6:00 AM)38% (Jun 10, 6:00 PM)29.59 "Hg (Jun 16, 5:00 AM)
Average61 °F81%29.94 "Hg
* Reported Jun 10 6:00 PM — Jun 25 6:00 PM, Küsnacht, Weather by CustomWeather, © 2016

Note: Actual official high and low records may vary slightly from our data, if they occured in-between our weather recording intervals... More about our weather records

Advertising

Küsnacht Weather History for the Previous 24 Hours

Scroll right to see more
 ConditionsComfort  
Time TempWeatherWind HumidityBarometerVisibility
6:00 PM
Sat, Jun 25
63 °FMild.5 mph95%30.00 "HgN/A
5:00 PM64 °FMild.6 mph93%30.00 "HgN/A
4:00 PM63 °FMild.13 mph89%30.00 "HgN/A
3:00 PM71 °FMild.6 mph74%29.92 "HgN/A
2:00 PM70 °FMild.5 mph79%29.91 "HgN/A
1:00 PM67 °FMild.3 mph86%29.94 "HgN/A
12:00 PM67 °FMild.5 mph88%29.93 "HgN/A
11:00 AM65 °FMild.2 mph93%29.94 "HgN/A
10:00 AM65 °FMild.2 mph96%29.95 "HgN/A
9:00 AM64 °FMild.3 mph96%29.97 "HgN/A
8:00 AM64 °FMild.5 mph95%29.98 "HgN/A
7:00 AM63 °FMild.3 mph95%29.96 "HgN/A
6:00 AM63 °FMild.5 mph96%29.98 "HgN/A
5:00 AM64 °FMild.7 mph94%30.00 "HgN/A
4:00 AM63 °FMild.6 mph96%29.95 "HgN/A
3:00 AM65 °FMild.8 mph93%29.98 "HgN/A
2:00 AM64 °FMild.2 mph96%29.97 "HgN/A
1:00 AM65 °FMild.10 mph93%29.98 "HgN/A
12:00 AM65 °FMild.8 mph95%30.02 "HgN/A
11:00 PM
Fri, Jun 24
65 °FMild.3 mph95%29.97 "HgN/A
10:00 PM65 °FMild.13 mph88%29.99 "HgN/A
9:00 PM81 °FWarm.5 mph47%29.91 "HgN/A
8:00 PM83 °FPartly sunny.6 mph46%29.89 "HgN/A
Weather by CustomWeather, © 2016

See weather overviewHow to use our weather pages